Location: Newark
(29.9790°N, 31.1340°E)
Time: 20:50:05
(UTC+00:00)

A-11 Canister half - Pass Details

Date: 02 February 2020
Orbit: 1524 x 1684 km, 47.3° (Epoch: 22 February)

Event Time Altitude Azimuth Distance (km) Brightness Sun altitude
Rises 17:36:57 0° 307° (NW) 4,697 12.2 -27.0°
Reaches altitude 10° 17:40:26 10° 316° (NW) 3,729 11.5 -27.8°
Maximum altitude 17:48:48 34° 19° (NNE) 2,379 9.7 -29.6°
Enters shadow 17:49:40 34° 29° (NNE) 2,402 9.7 -29.8°
